Hamilton Airport, Ontario

7:18 PM EDT on June 23, 2017 (GMT -0400)
Hamilton Airport

Weather History for CYHM - October, 2012

Change the Weather History Date:

Monday, October 8, 2012

  Actual Average Record
Temperature  
Mean Temperature 44 °F -  
Max Temperature 54 °F 54 °F 86 °F (2007)
Min Temperature 34 °F 38 °F 26 °F (2001)
Degree Days  
Heating Degree Days 21    
Moisture  
Dew Point 34 °F    
Average Humidity 72    
Maximum Humidity 95    
Minimum Humidity 35    
Precipitation  
Precipitation 0.00 in 0.09 in - ()
Sea Level Pressure  
Sea Level Pressure 30.18 in    
Wind  
Wind Speed 5 mph ()    
Max Wind Speed 16 mph    
Max Gust Speed 22 mph    
Visibility 15.0 miles    
Events      
Averages and records for this station are not official NWS values.
T = Trace of Precipitation, MM = Missing Value Source: Averaged Metar Reports

Daily Weather History Graph

Daily Weather History Graph

Search for Another Location

Airport or City:

Trip Planner

Search our weather history database for the weather conditions in past years. The results will help you decide how hot, cold, wet, or windy it might be!

Date:

Astronomy

Oct. 08, 2012 Rise Set
Actual Time 7:25 AM EDT 6:47 PM EDT
Civil Twilight 6:57 AM EDT 7:16 PM EDT
Nautical Twilight 6:24 AM EDT 7:49 PM EDT
Astronomical Twilight 5:51 AM EDT 8:22 PM EDT
Moon No Moon Rise 2:46 PM EDT (10/8)
Length of Visible Light 12h 19m
Length of Day
11h 22m
Waning Gibbous, 46% of the Moon is Illuminated
Oct 8
Waning Gibbous
Oct 15
New
Oct 21
First Quarter
Oct 29
Full
Nov 6
Last Quarter

Hourly Weather History & Observations

Time (EDT) Temp. Windchill Dew Point Humidity Pressure Visibility Wind Dir Wind Speed Gust Speed Precip Events Conditions
12:00 AM 37.4 °F 33.8 °F 33.8 °F 87% 30.14 in 15.0 mi North 4.6 mph - N/A   Mostly Cloudy
1:00 AM 35.6 °F - 33.8 °F 93% 30.13 in 15.0 mi SE 2.3 mph - N/A   Mostly Cloudy
2:00 AM 35 °F - 34 °F 95% 30.14 in 15 mi Calm Calm - -   Mostly Cloudy
2:00 AM 35.6 °F - 33.8 °F 93% 30.14 in 15.0 mi Calm Calm - N/A   Mostly Cloudy
3:00 AM 37.4 °F 34.9 °F 35.6 °F 93% 30.15 in 15.0 mi West 3.5 mph - N/A   Overcast
4:00 AM 37.4 °F - 35.6 °F 93% 30.15 in 15.0 mi Calm Calm - N/A   Overcast
5:00 AM 37.4 °F 34.9 °F 35.6 °F 93% 30.17 in 15.0 mi West 3.5 mph - N/A   Overcast
6:00 AM 37.4 °F - 33.8 °F 87% 30.17 in 15.0 mi Calm Calm - N/A   Mostly Cloudy
7:00 AM 37.4 °F - 33.8 °F 87% 30.18 in 15.0 mi Calm Calm - N/A   Mostly Cloudy
8:00 AM 38 °F - 36 °F 87% 30.20 in 15 mi WSW 4.6 mph - -   Mostly Cloudy
8:00 AM 37.4 °F 34.9 °F 35.6 °F 93% 30.20 in 15.0 mi WSW 3.5 mph - N/A   Mostly Cloudy
10:00 AM 42.8 °F 38.6 °F 37.4 °F 81% 30.23 in 15.0 mi West 6.9 mph - N/A   Scattered Clouds
11:00 AM 48.2 °F - 37.4 °F 66% 30.22 in 15.0 mi West 5.8 mph - N/A   Mostly Cloudy
12:00 PM 48.2 °F - 30.2 °F 50% 30.22 in 15.0 mi WSW 9.2 mph - N/A   Mostly Cloudy
1:00 PM 50.0 °F - 32.0 °F 50% 30.23 in 15.0 mi WSW 9.2 mph - N/A   Mostly Cloudy
2:00 PM 53 °F - 33 °F 35% 30.20 in 15 mi WSW 15.0 mph - -   Partly Cloudy
2:00 PM 53.6 °F - 33.8 °F 47% 30.20 in 15.0 mi SW 13.8 mph 20.7 mph N/A   Mostly Cloudy
3:00 PM 53.6 °F - 32.0 °F 44% 30.19 in 15.0 mi SSW 13.8 mph 21.9 mph N/A   Mostly Cloudy
4:00 PM 53.6 °F - 32.0 °F 44% 30.18 in 15.0 mi WSW 10.4 mph 17.3 mph N/A   Scattered Clouds
5:00 PM 51.8 °F - 33.8 °F 50% 30.18 in 15.0 mi South 16.1 mph - N/A   Mostly Cloudy
6:00 PM 48.2 °F - 33.8 °F 58% 30.19 in 15.0 mi South 12.7 mph 19.6 mph N/A   Mostly Cloudy
7:00 PM 44.6 °F 39.7 °F 33.8 °F 66% 30.19 in 15.0 mi South 9.2 mph - N/A   Scattered Clouds
8:00 PM 42 °F - 34 °F 64% 30.20 in 15 mi South 8.1 mph - -   Scattered Clouds
8:00 PM 42.8 °F 38.6 °F 33.8 °F 70% 30.19 in 15.0 mi South 6.9 mph - N/A   Scattered Clouds
9:00 PM 41.0 °F 35.8 °F 33.8 °F 76% 30.19 in 15.0 mi SSW 8.1 mph - N/A   Partly Cloudy
10:00 PM 41.0 °F 39.0 °F 33.8 °F 76% 30.20 in 15.0 mi SSE 3.5 mph - N/A   Partly Cloudy
11:00 PM 41.0 °F 39.0 °F 33.8 °F 76% 30.21 in 15.0 mi SSE 3.5 mph - N/A   Mostly Cloudy